CLASSIFICA

WARRIORDASH TORINO

01/12/2013
DIVISIONI:
TRAGUARDO     CLASSIFICA:   ASSOLUTA    M     F    
CATEGORIE:   TUTTE    |   UNICA  
FILTRO:
  Atleta      Team        Pulisci       Atleti classificati TRAGUARDO: 497  

Cliccare sulle colonne per cambiare ordinamento Pagina:   | 1 | | 2 | | 3 | | 4 | | 5 | | 6 | | 7 | | 8 | | 9 | | 10 |
Azioni Pos. Pos.M/F Cat. P.Cat. Naz Atleta Squadra Tempo Distacco in tempo Distacco in metri
11UNICA1108SCIACCA FRANCESCOIPERCIRCUITO EDEN 00:00:00 0
22UNICA2250AGRAVE ANDREAIENA TEAM SAN GIORGIO 00:00:10 44
33UNICA3402MASIA GABRIELEBLACK BULL FIGHT CLUB ALBA 00:00:48 207
44UNICA4403MERCANTI ENRICOBLACK BULL FIGHT CLUB ALBA 00:00:58 249
55UNICA5230BRUSSOLO SIMONECUR CUR CLUB 00:01:21 343
66UNICA6401FERRIO IVANOBLACK BULL FIGHT CLUB ALBA 00:01:27 367
77UNICA7317CATTANEO PAOLOSASSI ASSASSINI 00:01:43 430
88UNICA8424LANZILLOTTA MARCOI LANZILLI 00:01:47 446
99UNICA9470CAFFARA ANDREAVIBRAM 00:01:48 450
1010UNICA10404CASSINELLI GIOVANNIBLACK BULL FIGHT CLUB ALBA 00:02:01 500
1111UNICA11799FIDA DANIELSINGOLO 00:02:12 542
1212UNICA12520PORCELLA ANDREASINGOLO 00:02:15 554
1313UNICA13307MUTTI MATTEOSINGOLO 00:02:24 588
1414UNICA14109MARCHESINI NELLOIPERCIRCUITO EDEN 00:02:35 629
1515UNICA15160GERVASIO GIUSEPPEMAC TEAM 00:02:37 636
1616UNICA16444BERARDI LUCAARE YOU READY TO START 00:02:39 643
1717UNICA1786MINOTTI EMILIANOBCAMPFR/FISIOGYMCLUB 00:02:41 651
1818UNICA18146FERRONI ANDREASINGOLO 00:02:44 662
1919UNICA19350PERELLI LORENZOSINGOLO 00:02:50 684
2020UNICA20112GUERRIERO GABRIELESINGOLO 00:02:52 691
2121UNICA21318TESTA SIMONESASSI ASSASSINI 00:02:54 698
2222UNICA2296SCONOSCIUTO 1ATLETA LIBERO 00:02:55 702
2323UNICA23526ANSACOV VEACESLAVDARE MOTUS 00:03:06 741
2424UNICA24798FIDA LUCASINGOLO 00:03:15 773
2525UNICA25116SERINI FABRIZIOSINGOLO 00:03:18 784
2626UNICA2626GREPPI EMANUELESINGOLO 00:03:25 809
2727UNICA279SANZIO MANUELJOKER 00:03:30 826
2828UNICA2893DI FRAIA MIRKOSINGOLO 00:03:33 837
2929UNICA2934MARTINI PIETROSINGOLO 00:03:38 854
3030UNICA30512DI GIOIA CARLOVIBRAM 00:03:41 864
3131UNICA31379DI MAGGIO MICHELANGELO ALBERTOCROSS TRAINING WARRIORS 00:03:44 875
3232UNICA3239PANATI ANDREAEGO WARRIORS 00:03:51 899
3333UNICA33284DE LUCA DAVIDESINGOLO 00:03:55 912
3434UNICA34287MORETTI DANIELEGYM CENTER 00:04:11 966
3535UNICA35251GIVOGRE MATTEOIENA TEAM SAN GIORGIO 00:04:14 976
3636UNICA36101MECCUGNI LUCACFT 059 00:04:20 996
3737UNICA376DAINO CRISTIANJOKER 00:04:24 1.009
3838UNICA38110GROSSET STEFANOIPERCIRCUITO EDEN 00:04:27 1.019
3939UNICA39107IOTTI MICHELEIPERCIRCUITO EDEN 00:04:28 1.022
4040UNICA40264GIRARDO ROBERTOACCADEMIA TORINO 00:04:28 1.022
4141UNICA41316PARISI CRISTIANSASSI ASSASSINI 00:04:32 1.035
4242UNICA42787BOURGIT DAVIDESWISS WARRIOR 00:04:44 1.074
4343UNICA43312MARTELLI MICHELECORE 360 00:04:47 1.084
4444UNICA44140BINETTI MARCOSINGOLO 00:04:47 1.084
4545UNICA45142CROCE ANDREASUPER HEROES TEAM 00:04:48 1.087
4646UNICA46464GUGLIOTTA GIANLUCAWARRIORS DU BELIN 00:04:50 1.093
4747UNICA47442PROFETA PAOLOARE YOU READY TO START 00:04:51 1.096
4848UNICA48365GLIATTA MAURIZIOCROSS TRAINING WARRIORS 00:04:53 1.103
4949UNICA49373PETRARULO GIANLUIGICROSS TRAINING WARRIORS 00:04:56 1.112
5050UNICA50476AZZARONI RICCARDOEGO WARRIORS 00:04:59 1.122
5151UNICA51484MARGIOTTA FRANCESCODOWN TOWN 00:05:03 1.135
5252UNICA52489STUCCHI ANDREADOWN TOWN 00:05:12 1.163
5353UNICA53320PICONE MIRCOSASSI ASSASSINI 00:05:15 1.172
5454UNICA5438NAPEROTTI MARCOBARBARIAN WARRIORS 00:05:20 1.188
5555UNICA55105STALLA SAMUELESINGOLO 00:05:23 1.197
5656UNICA56359VENDITTI GIAMPIEROBCAMPFR/FISIOGYMCLUB 00:05:29 1.216
5757UNICA57518BASSETTI RICCARDOWARRIORS DU BELIN 00:05:32 1.225
5858UNICA58141VITELLI UGOSINGOLO 00:05:34 1.231
5959UNICA5965BEVOLO MAURIZIOSINGOLO 00:05:37 1.240
6060UNICA60408CROSARA NICOLO'SINGOLO 00:05:38 1.243
6161UNICA61763TOSI LUCACROSS FIT TORINO 00:05:41 1.252
6262UNICA62762ROSSINI LORENZOCROSS FIT TORINO 00:05:41 1.252
6363UNICA63326PAVAN ANDREABRAVEHEART 00:05:44 1.261
6464UNICA64400FASCIANI MARCOBLACK BULL FIGHT CLUB ALBA 00:05:46 1.267
6565UNICA65419ANZALONE MICHAELWARRIORS DU BELIN 00:05:49 1.276
6666UNICA66405SEMINARA DANIELEMIRABAI 00:05:49 1.276
6767UNICA67395ALEXANDRU LUCIANUBRAVEHEART 00:05:50 1.279
6868UNICA68410CECCHETTO SAMUELESINGOLO 00:05:57 1.300
6969UNICA69788ROSSI SIMONESINGOLO 00:06:02 1.315
7070UNICA70529CAPRETTI MARCOMUDRUN 00:06:05 1.324
7171UNICA7170RIGON SIMONEMIRABAI 00:06:10 1.339
7272UNICA72274DESIDERIO MANUELTEAM C'ENTRO 00:06:11 1.342
7373UNICA73279MARZANO DAVIDESINGOLO 00:06:20 1.368
7474UNICA7418BIGI DAVIDEWARRIOR TEDDY BEAR 00:06:25 1.383
751UNICA7564VILLA GRETABOOTCAMP ALESSANDRIA 00:06:33 1.406
7675UNICA76106CORNETTI EMANUELEIPERCIRCUITO EDEN 00:06:36 1.414
7776UNICA77378FORNERIS FABIOCROSS TRAINING WARRIORS 00:06:38 1.420
7877UNICA78397DELLA MONICA MIRKOBRAVEHEART 00:06:39 1.423
7978UNICA79331PIVIERI RICCARDOJUDO WARRIORS 00:06:41 1.429
8079UNICA8077TRALLI ADRIANOSINGOLO 00:06:43 1.435
8180UNICA81229BAROSSO MASSIMOCUR CUR CLUB 00:06:45 1.440
8281UNICA82774BECCIO FRANCESCOWARRIORS DU BELIN 00:06:48 1.449
8382UNICA83346VANIN NICOLASINGOLO 00:06:52 1.460
8483UNICA84197VASINO ANDREAVA MAC PIAN 00:06:55 1.469
8584UNICA85242GAINOTTI NERIOTRAIN YOURSELF TEAM 00:06:56 1.471
8685UNICA86785THIBAND SIMICSWISS WARRIOR 00:06:57 1.474
8786UNICA87360CURTO MATTIAMYLAND CROSSFIT MILANO 00:06:58 1.477
8887UNICA88486RIZZI GIANLUCADOWN TOWN 00:07:04 1.494
8988UNICA89241LAUGUEGLIA PAOLOSINGOLO 00:07:07 1.502
9089UNICA9085CAMPAGNA MICHELEMIRABAI 00:07:09 1.508
9190UNICA91270DIRENZO ROBERTOTEAM C'ENTRO 00:07:09 1.508
9291UNICA92357SILENZI IACOPOBCAMPFR/FISIOGYMCLUB 00:07:19 1.535
9392UNICA93289RAO DAVIDESCAPPLI 00:07:36 1.582
9493UNICA94125DEPETRIS WALTERSUPER HEROES TEAM 00:07:36 1.582
9594UNICA95223MONTI LORENZOSCAPPLI 00:07:36 1.582
9695UNICA96310GROSSI GIACOMOCORE 360 00:07:37 1.584
9796UNICA97278TESONE FRANCESCOGYM CENTER 00:07:38 1.587
9897UNICA984MINIELLO NICOLAEGO WARRIORS 00:07:41 1.595
992UNICA99340NATOLINI SERENASCAPPLI 00:07:41 1.595
10098UNICA100339CROCCOLO STEFANOSCAPPLI 00:07:41 1.595
1013UNICA101426FRONTESPEZI CRISTINAI LANZILLI 00:07:42 1.598
10299UNICA102199DINARDO DARIOMIRABAI 00:07:43 1.601
103100UNICA10362GIRAUDO FEDERICOCROSSCAMP CUNEO 00:07:43 1.601
104101UNICA104263PERAZZI ALESSANDROAMICI MIEI 00:07:44 1.603
105102UNICA10524FACCHINETTI ANGELOAMICI MIEI 00:07:45 1.606
106103UNICA106261FLORIANI MATTEOAMICI MIEI 00:07:46 1.609
107104UNICA10711BIONDI FRANCESCOEGO WARRIORS 00:07:49 1.617
108105UNICA108210COLLESANO FELICECATELBUONO 00:07:54 1.630
109106UNICA109423LANZILLOTTA LORENZOI LANZILLI 00:07:54 1.630
110107UNICA11031MALTONI MICHELESINGOLO 00:07:54 1.630
111108UNICA111349D'AMORE MATTEOSINGOLO 00:07:55 1.633
112109UNICA112102GILBERTINI LUCACFT 059 00:07:55 1.633
113110UNICA113399RIVOLTA CLAUDIOJOKER 00:07:59 1.643
114111UNICA11452CORTI GABRIELESINGOLO 00:08:00 1.646
115112UNICA11551ZIMOLO PAOLOBARBARIAN WARRIORS 00:08:00 1.646
116113UNICA116324TOSCO FABIOBRAVEHEART 00:08:01 1.649
117114UNICA11779PEGORARO FABIOMAC TEAM 00:08:02 1.651
118115UNICA118123PERRIELLO ANDREASUPER HEROES TEAM 00:08:02 1.651
119116UNICA11982GRILLI MATTEOMAC TEAM 00:08:02 1.651
1204UNICA12029WOJTAS KATARZYNASINGOLO 00:08:05 1.659
1215UNICA121104PIZZARELLI LUANAIPERCIRCUITO EDEN 00:08:07 1.664
122117UNICA122138ANDO' SALVATORESUPER HEROES TEAM 00:08:10 1.672
123118UNICA123147TONAETTO LIVIOSINGOLO 00:08:10 1.672
124119UNICA124355TROTTO FABRIZIOBCAMPFR/FISIOGYMCLUB 00:08:12 1.678
125120UNICA125328VIZIO ALBERTOBRAVEHEART 00:08:13 1.680
126121UNICA126145SKEJO MARTINSINGOLO 00:08:15 1.685
127122UNICA127224DURANTI UMBERTOSCAPPLI 00:08:23 1.706
128123UNICA128111ROSSELLI CORRADOIPERCIRCUITO EDEN 00:08:25 1.711
129124UNICA129333TARABORELLI GIULIOJUDO WARRIORS 00:08:25 1.711
130125UNICA13074GRIBALDO MASSIMILIANOSINGOLO 00:08:32 1.729
131126UNICA131211PRESTIANNI ROSARIOCASTELBUONO 00:08:34 1.735
132127UNICA132487BRUZZESE DAVIDEDOWN TOWN 00:08:35 1.737
133128UNICA133795SERRANO DANNYTEAM MUSCLE CAT 00:08:39 1.747
134129UNICA134528LEONI MAUROMUDRUN 00:08:40 1.750
135130UNICA135431GIULIANO SILVIOSINGOLO 00:08:40 1.750
136131UNICA136124TEMELLINI FILIPPOSUPER HEROES TEAM 00:08:40 1.750
137132UNICA137330VALASTRO PAOLOJUDO WARRIORS 00:08:41 1.752
138133UNICA138411FALLETTO CHRISTIANSINGOLO 00:08:42 1.755
139134UNICA139277BARBALISCIA GIANCARLOGYM CENTER 00:08:42 1.755
140135UNICA140452BROSSA ALBERTODIVERSAMENTE TONICI 00:08:42 1.755
141136UNICA141219BIMA DIEGOSINGOLO 00:08:54 1.785
142137UNICA142272SEDOLA STEFANOTEAM C'ENTRO 00:08:56 1.790
143138UNICA143315STRATTA LUCASINGOLO 00:08:59 1.798
144139UNICA144543PERDIGAO DA SILVA HARTURSINGOLO 00:09:00 1.800
145140UNICA145459URSINO ALESSANDRO PIETROSINGOLO 00:09:03 1.808
146141UNICA14660MIRTO IVANCROSSCAMP CUNEO 00:09:04 1.810
147142UNICA147767PIATTO ELIASINGOLO 00:09:07 1.818
148143UNICA148496BATTOCCHIO DAVIDESINGOLO 00:09:11 1.828
149144UNICA14991PETROCCHI ANTONELLOBCAMPFR/FISIOGYMCLUB 00:09:13 1.833
150145UNICA150479PIOMBINI MASSIMODOWN TOWN 00:09:14 1.835
151146UNICA151120D'ANGELLA DARIOQUATTRO AMICI AL BOX 00:09:15 1.838
152147UNICA152225MORETTI PAOLOSINGOLO 00:09:22 1.855
153148UNICA153221SARABELLI MAURIZIOSINGOLO 00:09:23 1.857
154149UNICA15490DELICATO FABIOBCAMPFR/FISIOGYMCLUB 00:09:26 1.865
155150UNICA155478MOLTENI PAOLODOWN TOWN 00:09:30 1.874
156151UNICA156252MILANO DIEGOIENA TEAM SAN GIORGIO 00:09:32 1.879
1576UNICA157304NEBBIA CAROLINASINGOLO 00:09:33 1.882
158152UNICA158249PAGLIA DANIELEIENA TEAM SAN GIORGIO 00:09:33 1.882
159153UNICA159509GANDINI MAURIZIOVIBRAM 00:09:34 1.884
160154UNICA160275BANCHE PAOLOTEAM C'ENTRO 00:09:41 1.901
161155UNICA161243LENZI ANDREATRAIN YOURSELF TEAM 00:09:45 1.911
162156UNICA162158SOLA MASSIMOSINGOLO 00:09:49 1.920
163157UNICA163262D'AMICO ANGELOAMICI MIEI 00:09:49 1.920
164158UNICA164319SERRONE MATTIASASSI ASSASSINI 00:09:52 1.927
165159UNICA165155FRASSETTO LUCAMIRABAI 00:09:52 1.927
166160UNICA166440SIBILLA GIUSEPPESINGOLO 00:10:00 1.946
167161UNICA167306DAL RE ANDREASINGOLO 00:10:01 1.949
168162UNICA168790VACCARO FILIPPOIPERCIRCUITO EDEN 00:10:04 1.956
169163UNICA16920CITTADIN FABIOMYLAND CROSSFIT MILANO 00:10:04 1.956
170164UNICA170412BERNARDI FABIOSINGOLO 00:10:06 1.960
171165UNICA171200ANTONACCI LUCAMIRABAI 00:10:07 1.963
172166UNICA172499ISOPI GIACOMOSINGOLO 00:10:09 1.968
173167UNICA173344DONATO FRANCESCOSINGOLO 00:10:16 1.984
174168UNICA174435BILLANTE PAOLODARE MOTUS 00:10:20 1.993
175169UNICA175505DI GROPELLO ALBERTOSUPER HEROES TEAM 00:10:20 1.993
176170UNICA17699MECCUGNI MARCOCFT 059 00:10:27 2.009
177171UNICA177131MALVICINI SAVINOSUPER HEROES TEAM 00:10:29 2.014
178172UNICA17830MAGRINI FABRIZIOMYLAND CROSSFIT MILANO 00:10:31 2.019
179173UNICA179193NOTA MARCOVA MAC PIAN 00:10:34 2.026
180174UNICA180115BELTRAMO DAVIDECROSSCAMP CUNEO 00:10:35 2.028
1817UNICA181460CARBOGNANI PATRIZIAIPERCIRCUITO EDEN 00:10:38 2.035
182175UNICA182351LORINI SIMONESINGOLO 00:10:38 2.035
183176UNICA183418GUIDA FEDERICOORANGE WALKERS 00:10:43 2.046
1848UNICA184313DEI PIU LUCILLACORE 360 00:10:45 2.051
185177UNICA18513GAMBALE FRANCESCOGNAGNA STYLE 00:10:48 2.058
186178UNICA18695FILIPPINI GIANLUCAIPERCIRCUITO EDEN 00:10:50 2.062
187179UNICA187321PICONE FRANCOSASSI ASSASSINI 00:10:52 2.067
188180UNICA188122BILLI DAVIDESUPER HEROES TEAM 00:10:56 2.076
189181UNICA189322PERRONE RICCARDOBRAVEHEART 00:10:57 2.078
190182UNICA190173FERRARESI IVANOMYLAND CROSSFIT MILANO 00:10:58 2.080
191183UNICA191232BOGGERO GIANPAOLOCUR CUR CLUB 00:10:59 2.082
192184UNICA192228GALLO ANDREACUR CUR CLUB 00:11:01 2.087
193185UNICA193396ROSSI FABRIZIOBRAVEHEART 00:11:04 2.094
194186UNICA194783PERONACE COSIMOSINGOLO 00:11:07 2.100
195187UNICA195100LUGLI MIRCOCFT 059 00:11:08 2.103
196188UNICA196407CAVARRETTA EMANUELESINGOLO 00:11:09 2.105
197189UNICA197406BIAGIONI FEDERICOSINGOLO 00:11:09 2.105
198190UNICA19889PATRONI ADRIANOBCAMPFR/FISIOGYMCLUB 00:11:09 2.105
199191UNICA199267GIRODO DAVIDEACCADEMIA TORINO 00:11:15 2.118
200192UNICA200376BRUZZO MARIOCROSS TRAINING WARRIORS 00:11:18 2.125
201193UNICA201218GHIBAUDO FABIOSINGOLO 00:11:19 2.127
202194UNICA202297GARZELLO ALESSANDROBODY STYLE 00:11:19 2.127
203195UNICA203298CASALE ALLOA JOSHUABODY STYLE 00:11:19 2.127
204196UNICA204443RIGHETTI FEDERICOARE YOU READY TO START 00:11:21 2.131
205197UNICA205288VIARISIO CLAUDIOACCADEMIA TORINO 00:11:23 2.136
206198UNICA206498CONTI LUCIANOSINGOLO 00:11:25 2.140
207199UNICA207276BASALUZZO ALBERTOGYM CENTER 00:11:32 2.155
2089UNICA208525GROGNARDI MARIA LUISADARE MOTUS 00:11:35 2.162
209200UNICA209524GROGNARDI MATTEODARE MOTUS 00:11:35 2.162
210201UNICA210458PAVESE CARLODARE MOTUS 00:11:37 2.166
211202UNICA211282VIALI FRANCOSINGOLO 00:11:39 2.171
212203UNICA212283SANDRO ROCCOSINGOLO 00:11:39 2.171
213204UNICA213280CAPPELLETTI LUCASINGOLO 00:11:40 2.173
214205UNICA21455RAIMOLDI MASSIMILIANOGNAGNA STYLE 00:11:40 2.173
21510UNICA215569PINTO ERICADARE MOTUS 00:11:42 2.177
216206UNICA216491TANSINI GIANNIDOWN TOWN 00:11:43 2.179
217207UNICA217439BATTOCCHIO MATTEODARE MOTUS 00:11:45 2.184
218208UNICA218387MOROSETTI ANGELOAREA 51 00:11:47 2.188
219209UNICA219386TRISCHITTA STEFANOAREA 51 00:11:47 2.188
220210UNICA220385CADIA EUGENIOAREA 51 00:11:47 2.188
221211UNICA221384PUCCIANTI STEFANOAREA 51 00:11:48 2.190
222212UNICA222388MOROSETTI MARCOAREA 51 00:11:48 2.190
22311UNICA223215PRETARI FRANCESCASINGOLO 00:11:49 2.192
224213UNICA224214FRANCHI DARIOSINGOLO 00:11:49 2.192
225214UNICA225363MAGNABOSCO LUCASINGOLO 00:11:50 2.194
226215UNICA226361DE VUONO GIANLUCASINGOLO 00:11:50 2.194
227216UNICA227391FONTANA ANDREASINGOLO 00:11:51 2.197
228217UNICA228392PIGNI LORENZOSINGOLO 00:11:51 2.197
229218UNICA229362PALMERI ROBERTOSINGOLO 00:11:51 2.197
230219UNICA230457PIASENTI LEONARDOSINGOLO 00:11:52 2.199
231220UNICA231364OSELLO GIANDOMENICOSINGOLO 00:11:52 2.199
232221UNICA232103ZERBINI MARENZI ANDREACFT 059 00:11:56 2.207
233222UNICA23325GAGLIARDI ALFONSOMYLAND CROSSFIT MILANO 00:12:03 2.222
234223UNICA234366GIANI PIER GIUSEPPECROSS TRAINING WARRIORS 00:12:04 2.224
23512UNICA235356CORELLI STEFANIABCAMPFR/FISIOGYMCLUB 00:12:15 2.248
236224UNICA236347CRISTOFOLI SERGIOSINGOLO 00:12:15 2.248
237225UNICA23750ZENEZENI GABRIELEWARRIOR TEDDY BEAR 00:12:16 2.250
238226UNICA23821CUCCHI ALESSANDROWARRIOR TEDDY BEAR 00:12:16 2.250
23913UNICA23941RATTI VALENTINAGNAGNA STYLE 00:12:16 2.250
240227UNICA24087CARDELLA CLAUDIOBCAMPFR/FISIOGYMCLUB 00:12:20 2.258
24114UNICA241371NESTA PATRIZIACROSS TRAINING WARRIORS 00:12:21 2.260
242228UNICA24283BANDERA DIEGOSINGOLO 00:12:26 2.271
243229UNICA243220MONTALTO ANTONIOSINGOLO 00:12:28 2.275
244230UNICA244165BALLARINI FRANCESCOSINGOLO 00:12:28 2.275
24515UNICA2458GRANILE ANNAJOKER 00:12:30 2.279
246231UNICA246369LUPO LEOPOLDOCROSS TRAINING WARRIORS 00:12:31 2.281
247232UNICA247456BIONDI MARCODIVERSAMENTE TONICI 00:12:32 2.283
248233UNICA248189DRUETTA STEFANOSINGOLO 00:12:36 2.291
249234UNICA24953ROSSI PIERLUIGIBOOTCAMP ALESSANDRIA 00:12:37 2.293
250235UNICA250144VOIGT TORBENSINGOLO 00:12:39 2.298
251236UNICA25194ZUCCARO MARIOIPERCIRCUITO EDEN 00:12:40 2.300
25216UNICA252143SKEJO HELLESINGOLO 00:12:40 2.300
253237UNICA253445LAURINO EDOARDOARE YOU READY TO START 00:12:41 2.302
254238UNICA254786STAUB PAOLOSWISS WARRIOR 00:12:46 2.312
255239UNICA25537MORETTI ROBERTOAMICI MIEI 00:12:47 2.314
256240UNICA256345RAMELLO MARCOSINGOLO 00:12:49 2.318
257241UNICA257191FRANZOSO ALESSIOQUATTRO AMICI AL BOX 00:12:53 2.326
258242UNICA258302PRIORE GIANLUCASINGOLO 00:12:57 2.334
259243UNICA259420GIOVE LUCAROMAGNA MUDDERS 00:12:59 2.338
26017UNICA260383BRUNETTI ALESSANDRAROMAGNA MUDDERS 00:12:59 2.338
261244UNICA261495BACCARINI ANDREAROMAGNA MUDDERS 00:12:59 2.338
262245UNICA26292SORGE MICHELEBCAMPFR/FISIOGYMCLUB 00:13:00 2.340
26318UNICA263127SANSONE CRISTIANASUPER HEROES TEAM 00:13:05 2.351
264246UNICA26447TURRI ANDREAGNAGNA STYLE 00:13:05 2.351
265247UNICA265149CONTIN MATTIATEAM C'ENTRO 00:13:12 2.365
266248UNICA266415ORTO MARCOORANGE WALKERS 00:13:13 2.367
267249UNICA267268SEVERINO TONYACCADEMIA TORINO 00:13:16 2.373
268250UNICA26872FRANZOSO OMARQUATTRO AMICI AL BOX 00:13:19 2.379
269251UNICA26923DELL'ANNA MATTIASINGOLO 00:13:21 2.383
270252UNICA270462MARANGON SAMUELEBAGNI COLOMBO 00:13:22 2.385
27119UNICA271311GARULLI LUCIACORE 360 00:13:28 2.397
272253UNICA27228GUAIUMI GIACOMOWARRIOR TEDDY BEAR 00:13:28 2.397
273254UNICA273238LAMBERTI ALESSANDROBODY STYLE 00:13:34 2.408
274255UNICA274166BIANCO CLAUDIOSINGOLO 00:13:43 2.426
27520UNICA27561TESTA TATIANACROSSCAMP CUNEO 00:13:47 2.434
276256UNICA27688CARDELLA ROBERTOBCAMPFR/FISIOGYMCLUB 00:14:04 2.467
27721UNICA277269HONORATI CLAUDIAACCADEMIA TORINO 00:14:10 2.478
278257UNICA278271DEIDDA VALERIOTEAM C'ENTRO 00:14:20 2.497
279258UNICA279500RAGO GIUSEPPESINGOLO 00:14:26 2.509
280259UNICA280501TIEGER SIMONESINGOLO 00:14:26 2.509
281260UNICA281195DAVICO ALESSANDROVA MAC PIAN 00:14:29 2.514
282261UNICA282240VENTURI ANDREATEAM BOOTCAMP BS 00:14:43 2.541
283262UNICA283244MARRETTA EMANUELETRAIN YOURSELF TEAM 00:14:44 2.542
284263UNICA284170MIGHETTO FEDERICOSINGOLO 00:14:53 2.559
285264UNICA285156MATERA ANTONELLOMIRABAI 00:15:04 2.579
286265UNICA286169GRECO FERNANDOSINGOLO 00:15:05 2.581
28722UNICA287174BARATTA ROSALBASINGOLO 00:15:06 2.583
288266UNICA288192LODI MARCOVA MAC PIAN 00:15:06 2.583
289267UNICA289301CAMANNA GIANMARIASINGOLO 00:15:08 2.587
290268UNICA290213SOTTILE SIMONECASTELBUONO 00:15:10 2.590
291269UNICA291323ANTONIO SILVIOBRAVEHEART 00:15:11 2.592
292270UNICA292342SACCANI LORENZOSINGOLO 00:15:12 2.594
293271UNICA29376GRILLI MARCOMAC TEAM 00:15:12 2.594
294272UNICA294150RICCI DARIOSINGOLO 00:15:13 2.596
295273UNICA295796MORENO ARMANDOTEAM MUSCLE CAT 00:15:13 2.596
296274UNICA296148BONINI MANUELESINGOLO 00:15:16 2.601
29723UNICA297422FANTUZZI MONICAIPERCIRCUITO EDEN 00:15:16 2.601
298275UNICA298343SACCANI ANDREASINGOLO 00:15:18 2.605
29924UNICA299413FICETOLA NANCYSINGOLO 00:15:18 2.605
300276UNICA300797ARREDLA ZENOTEAM MUSCLE CAT 00:15:24 2.616
301277UNICA301427ROCCO GIORGIOBOOTCAMP ALESSANDRIA 00:15:26 2.619
30225UNICA302196BURDIZZO CAMILLAVA MAC PIAN 00:15:28 2.623
303278UNICA30333MARTINELLI FRANCESCOMYLAND CROSSFIT MILANO 00:15:30 2.626
304279UNICA304172LENCIONI GIANLUCAMYLAND CROSSFIT MILANO 00:15:31 2.628
305280UNICA305784MIADEN SIMICSWISS WARRIOR 00:15:32 2.630
306281UNICA306480CAPELLI GIANLUCADOWN TOWN 00:15:35 2.635
307282UNICA307794SNELLING JONATHANTEAM MUSCLE CAT 00:15:35 2.635
308283UNICA308273SANCINETO FRANCESCOTEAM C'ENTRO 00:15:35 2.635
309284UNICA309485NIEDDU STEFANODOWN TOWN 00:15:36 2.637
310285UNICA310163MARZO ROBERTOSINGOLO 00:15:38 2.641
311286UNICA311162MODAFFARI DANIELESINGOLO 00:15:39 2.643
312287UNICA312164SCIBETTA ROBERTOSINGOLO 00:15:39 2.643
313288UNICA313368SANTORO GABRIELECROSS TRAINING WARRIORS 00:15:43 2.650
31426UNICA314789CAPPELLO ALICESINGOLO 00:15:44 2.651
315289UNICA315482CAPELLI IRENEODOWN TOWN 00:15:45 2.653
316290UNICA316497CIARDO GIANLUCATEAM BOOTCAMP BS 00:15:55 2.671
317291UNICA317353CECCARELLI DANIELEBCAMPFR/FISIOGYMCLUB 00:15:59 2.678
318292UNICA318449BISOGNO VALERIOSUPER HEROES TEAM 00:16:00 2.680
319293UNICA319327MALAVOLTA ALESSIOBRAVEHEART 00:16:05 2.688
320294UNICA320139DUTTO RICCARDOSUPER HEROES TEAM 00:16:05 2.688
321295UNICA321151TUSHKA KEVINTEAM MUSCLE CAT 00:16:06 2.690
322296UNICA322455COLLER ANDREADIVERSAMENTE TONICI 00:16:07 2.692
32327UNICA323126MATE TEREZASUPER HEROES TEAM 00:16:10 2.697
324297UNICA324488ROSSINI ROBERTODOWN TOWN 00:16:13 2.702
325298UNICA325490PELLEGRINI ALEXANDERDOWN TOWN 00:16:13 2.702
32628UNICA326483SULMINI SARADOWN TOWN 00:16:14 2.704
327299UNICA327492ALDEGHI LORENZODOWN TOWN 00:16:14 2.704
32829UNICA328481TETTAMANTI SABRINADOWN TOWN 00:16:14 2.704
329300UNICA329354MARINI EMILIANOBCAMPFR/FISIOGYMCLUB 00:16:17 2.709
330301UNICA330157MARSALA ALESSANDROSINGOLO 00:16:21 2.716
331302UNICA331534PILLON ANDREASIMROYFITNESS 00:16:26 2.725
332303UNICA33212BAVA MASSIMOSINGOLO 00:16:31 2.733
333304UNICA33369BERTOLINO PAOLOGNAGNA STYLE 00:16:33 2.737
334305UNICA334209MERLO ALBERTOSINGOLO 00:16:53 2.771
335306UNICA335285BASSO SEBASTIANOBODY STYLE 00:16:53 2.771
33630UNICA33657GIUNTOLI LILIAEGO WARRIORS 00:16:58 2.779
337307UNICA337531CASAMASSIMA ANTONIOSIMROYFITNESS 00:16:59 2.781
338308UNICA338159OGGERO LUCASINGOLO 00:17:17 2.811
339309UNICA339430GIRAUDO ENRICOSINGOLO 00:17:17 2.811
340310UNICA340303DOUMBE JASONSINGOLO 00:17:22 2.819
34131UNICA341305ANSALDI LINDASINGOLO 00:17:23 2.821
342311UNICA342253OLDIN ANDREAIENA TEAM SAN GIORGIO 00:17:26 2.825
343312UNICA343247BAUDINO MARCOIENA TEAM SAN GIORGIO 00:17:26 2.825
34432UNICA344248ELLENA ANNALISAIENA TEAM SAN GIORGIO 00:17:26 2.825
345313UNICA345535ROVERI SIMONESIMROYFITNESS 00:17:29 2.830
346314UNICA346239RACCA ALESSANDROBODY STYLE 00:17:29 2.830
34733UNICA347234BONDI ALESSANDRASINGOLO 00:17:37 2.843
348315UNICA348233MELCHIORRE LORENZOSINGOLO 00:17:38 2.845
349316UNICA349212PROIETTI MASSIMILIANOCASTELBUONO 00:17:42 2.852
35034UNICA350522MACCHIA FREDIANADARE MOTUS 00:17:45 2.856
351317UNICA351523SPINELLA ANDREADARE MOTUS 00:17:45 2.856
35235UNICA352521PRATO CRISTINADARE MOTUS 00:17:45 2.856
353318UNICA353390GHIGO GIAN PAOLOSINGOLO 00:17:51 2.866
35436UNICA354414RAINERO LUISAORANGE WALKERS 00:18:05 2.889
355319UNICA355417DI NATALE CLAUDIOORANGE WALKERS 00:18:05 2.889
356320UNICA356768RAVASSARD FEDERICOTURIN MARATHON 00:18:07 2.892
357321UNICA357513BONISOLI ABRAMO EUGENIOTURIN MARATHON 00:18:07 2.892
358322UNICA358226CANTU CRISTIANOSINGOLO 00:18:08 2.893
359323UNICA359504FRULLONI FEDERICOSUPER HEROES TEAM 00:18:08 2.893
360324UNICA360227MONCADA ALESSANDROSINGOLO 00:18:08 2.893
361325UNICA361175COMBA FABIOSINGOLO 00:18:08 2.893
36237UNICA362136DOGLIANI GIULIASINGOLO 00:18:08 2.893
363326UNICA363568GIARDINO GABRIELETURIN MARATHON 00:18:09 2.895
36438UNICA364352ROMEO ANNA MARIASINGOLO 00:18:15 2.904
36539UNICA365133BIMINI PATRIZIASUPER HEROES TEAM 00:18:18 2.909
366327UNICA366527BIANCHINI COSIMOMUDRUN 00:18:22 2.915
367328UNICA367508SARTI ALESSANDROSUPER HEROES TEAM 00:18:32 2.931
368329UNICA36878GRILLI MASSIMOMAC TEAM 00:18:34 2.934
369330UNICA369161PRUGNO FABIOMAC TEAM 00:18:34 2.934
370331UNICA370533SAVINO STEFANOSIMROYFITNESS 00:18:35 2.936
371332UNICA37156MADERA PASQUALESINGOLO 00:18:43 2.948
372333UNICA372176PAMPALONI STEFANOSINGOLO 00:18:43 2.948
37340UNICA373532ARMELLIN ALESSANDRASIMROYFITNESS 00:18:45 2.951
374334UNICA374130VITALONI GIORGIOSUPER HEROES TEAM 00:18:51 2.961
37541UNICA375132CAMPOREALE SILVIASUPER HEROES TEAM 00:18:51 2.961
376335UNICA37667MACCARIELLO SILVESTROSINGOLO 00:19:07 2.985
377336UNICA377332FRUSTAGLIA STEFANOJUDO WARRIORS 00:19:09 2.988
37842UNICA378536NICOLO ALESSIASIMROYFITNESS 00:19:11 2.991
37943UNICA37959ODETTO LAURACROSSCAMP CUNEO 00:19:12 2.993
380337UNICA380119GALLI MASSIMOGNAGNA STYLE 00:19:15 2.997
38144UNICA381447LAZZARINI GIULIAARE YOU READY TO START 00:19:17 3.000
382338UNICA382117GIANCASPRO FRANCESCOBARBARIAN WARRIORS 00:19:22 3.008
38345UNICA38354VOLFORA MARKETABOOTCAMP ALESSANDRIA 00:19:23 3.009
38446UNICA384198SARTI MARIA TERESAVA MAC PIAN 00:19:47 3.045
385339UNICA385194MARASSO DANILOVA MAC PIAN 00:19:47 3.045
386340UNICA38635MARTINO ANDREASINGOLO 00:20:05 3.072
38747UNICA38745STUPINO FEDERICASINGOLO 00:20:06 3.073
388341UNICA388530CASAMONTI MICHELEMUDRUN 00:20:21 3.095
389342UNICA38932MANTOVANI ERIKWARRIOR TEDDY BEAR 00:21:00 3.151
39048UNICA390153PASTORE SIMONAMIRABAI 00:21:08 3.162
391343UNICA391338GIOVANI MASSIMILIANOTEAM GAMMA 00:21:08 3.162
392344UNICA392335IMPARATO MASSIMILIANOTEAM GAMMA 00:21:08 3.162
39349UNICA393337CASTALDO VALENTINATEAM GAMMA 00:21:08 3.162
394345UNICA394334RUSSO GIUSEPPETEAM GAMMA 00:21:08 3.162
395346UNICA395336ROMANO MATTEOTEAM GAMMA 00:21:09 3.163
396347UNICA396217MAIORCA ALESSANDROSINGOLO 00:21:17 3.174
39750UNICA397266TARDIVO ELEONORAACCADEMIA TORINO 00:21:18 3.176
39851UNICA398246TAVERNARI ELENATRAIN YOURSELF TEAM 00:21:18 3.176
39952UNICA399471GHIRONI STEFANIAVIBRAM 00:21:19 3.177
400348UNICA400469SCHIAVONE FABRIZIOVIBRAM 00:21:19 3.177
40153UNICA401463SNITSARENKA VERABAGNI COLOMBO 00:21:36 3.201
402349UNICA402461PENDOLA FRANCESCOBAGNI COLOMBO 00:21:36 3.201
403350UNICA403114MAZZANTI MASSIMOSINGOLO 00:21:38 3.203
404351UNICA404448QUATTROCCHI MARCOARE YOU READY TO START 00:21:38 3.203
40554UNICA40598PEREGO LAURAJOKER 00:21:44 3.212
406352UNICA4067RENOLDI FEDERICOJOKER 00:21:45 3.213
40755UNICA407517SACCO ARIANNASINGOLO 00:21:47 3.216
408353UNICA408793FISOGNI ZENOGNAGNA STYLE 00:21:55 3.226
40956UNICA409245ZANI LUISELLATRAIN YOURSELF TEAM 00:21:59 3.232
410354UNICA41019CARBONI STEFANOWARRIOR TEDDY BEAR 00:22:12 3.249
41157UNICA411265GATTUSO MARIELLAACCADEMIA TORINO 00:22:12 3.249
41258UNICA41280SKORA AGNIESZKAMAC TEAM 00:22:43 3.290
413355UNICA413299PATRUCCHI ALBERTOSINGOLO 00:22:48 3.297
414356UNICA41427GRILLO LUCASINGOLO 00:22:56 3.307
415357UNICA415329BOCCHETTA ANDREABRAVEHEART 00:23:01 3.314
416358UNICA416325GAMERRO DAVIDEBRAVEHEART 00:23:02 3.315
417359UNICA417494SACCHETTI MANUELSINGOLO 00:23:08 3.323
418360UNICA418237FRISONE MAURIZIOBODY STYLE 00:23:08 3.323
41959UNICA419394OSIP NINASINGOLO 00:23:08 3.323
42060UNICA420393TENERELLI GABRIELLASINGOLO 00:23:09 3.324
421361UNICA421775CARRARO DANIELEVIBRAM 00:23:11 3.327
422362UNICA422502FUSARO DARIODARE MOTUS 00:23:11 3.327
42361UNICA423235BALLATORE SARABODY STYLE 00:23:19 3.337
42462UNICA424446MEDORI FRANCESCAARE YOU READY TO START 00:23:27 3.347
42563UNICA425372GNOCATO LORENACROSS TRAINING WARRIORS 00:23:28 3.349
42664UNICA426425LANZILLOTTA ALESSIAI LANZILLI 00:23:45 3.370
42765UNICA42715SASSO SILVIAGNAGNA STYLE 00:23:58 3.386
42866UNICA428121GALLI ELISABETTAGNAGNA STYLE 00:23:58 3.386
42967UNICA429236PAROLA FEDERICABODY STYLE 00:24:03 3.393
43068UNICA430542D'ADDARIO GILDATRAIN YOURSELF TEAM 00:24:03 3.393
431363UNICA431294GHERRA MICHELEDARE MOTUS 00:24:04 3.394
432364UNICA432184FAONE MASSIMILIANOCASSOLO 00:24:19 3.412
43369UNICA433182ALLEGRI FEDERICACASSOLO 00:24:27 3.422
434365UNICA434515BULIDA RODICACASSOLO 00:24:27 3.422
43570UNICA435128CORRADETTI LAURASUPER HEROES TEAM 00:24:42 3.440
436366UNICA436255RUFFINATTI SERGIOALEGHE 00:24:50 3.450
437367UNICA437254GIAI MINET GREGORIOALEGHE 00:24:50 3.450
43871UNICA438257RUFFINATTI LUCILLAALEGHE 00:24:51 3.451
439368UNICA439259NOVENA ANDREAALEGHE 00:24:51 3.451
440369UNICA440256ROSATO PIEROALEGHE 00:24:51 3.451
441370UNICA441183FRISARI FABIOCASSOLO 00:25:11 3.475
44272UNICA442516BURALLI RAFFAELLACASSOLO 00:25:11 3.475
443371UNICA443467PALOMBELLA FRANCESCOSINGOLO 00:25:11 3.475
44473UNICA444434FILIPPONI PAOLACASSOLO 00:25:11 3.475
445372UNICA445754SANTAMARIA DIEGOVIBRAM 00:25:12 3.476
446373UNICA446466CASSOLO LUCAVIBRAM 00:25:12 3.476
447374UNICA447188BASONE WILLYCASSOLO 00:25:12 3.476
448375UNICA448296GIGLIO GIANFRANCODARE MOTUS 00:25:12 3.476
44974UNICA449468RONCO SILVIAVIBRAM 00:25:12 3.476
450376UNICA450185BIANCO MASSIMOCASSOLO 00:25:12 3.476
45175UNICA451465PEROSINO SIMONETTAVIBRAM 00:25:13 3.478
45276UNICA452187TORTONE LAURACASSOLO 00:25:13 3.478
453377UNICA453186MAISTRO PAOLOCASSOLO 00:25:13 3.478
454378UNICA454450CASALE GIANPAOLOSINGOLO 00:25:17 3.482
45577UNICA455451MATTALIA MANUELASINGOLO 00:25:18 3.484
45678UNICA456118INNEO LOREDANAQUATTRO AMICI AL BOX 00:25:54 3.526
45779UNICA4572CAVALLI MARASINGOLO 00:26:00 3.533
458379UNICA4583CAVENAGO ALESSANDROSINGOLO 00:26:00 3.533
45980UNICA45973PISANI ANTONELLAQUATTRO AMICI AL BOX 00:26:05 3.538
460380UNICA460129RUFFINO MASSIMOSUPER HEROES TEAM 00:26:15 3.550
461381UNICA461380PETITO ROBERTOCROSS TRAINING WARRIORS 00:26:52 3.592
46281UNICA462300RAVETTI ELISABETTACUR CUR CLUB 00:26:57 3.597
46382UNICA463231CORVELLA EMANUELACUR CUR CLUB 00:26:57 3.597
46483UNICA46475BIOLATTO MARISACROSSCAMP CUNEO 00:27:20 3.623
46584UNICA465375CRESTA SIMONACROSS TRAINING WARRIORS 00:27:28 3.631
466382UNICA46614MARTINI FEDERICOGNAGNA STYLE 00:28:14 3.681
467383UNICA46717BENZONI LUCAJOKER 00:28:15 3.682
46885UNICA468190BUCCIROSSO PAOLA ELENAQUATTRO AMICI AL BOX 00:28:19 3.686
46986UNICA469416ROBUTTI SILVIAORANGE WALKERS 00:28:32 3.700
47087UNICA47044SALA STEFANIAJOKER 00:29:02 3.731
47188UNICA47143RENOLDI ANNALISAJOKER 00:29:05 3.734
47289UNICA472222VIGNOLINI CLAUDIA LUCIAMARATUONATI 00:29:14 3.744
473384UNICA473178RICCHIUTI ANDREAMARATUONATI 00:29:14 3.744
474385UNICA474179TENESE MARCOMARATUONATI 00:29:14 3.744
475386UNICA475180CHIRIELEISON GIOVANNIMARATUONATI 00:29:14 3.744
476387UNICA476181TOSCANO ORAZIOMARATUONATI 00:29:14 3.744
477388UNICA477510GORIA MASSIMILIANOMARATUONATI 00:29:14 3.744
478389UNICA478453GAI ANDREADIVERSAMENTE TONICI 00:29:29 3.759
47990UNICA479454SFORZI ILARIADIVERSAMENTE TONICI 00:29:29 3.759
480390UNICA48010PAROLINI ALDOJOKER 00:29:54 3.784
481391UNICA4815RENOLDI DAVIDEJOKER 00:30:01 3.791
48291UNICA482433LONGBARDI ROBERTAJOKER 00:30:19 3.809
48392UNICA48358BIANCHI LAURAJOKER 00:30:20 3.810
484392UNICA484540PANZERI MASSIMOVELOCIRAPTORS 00:31:39 3.886
48593UNICA485539LICINI MARTAVELOCIRAPTORS 00:31:40 3.887
486393UNICA486438CARLEVARIS EZIODARE MOTUS 00:31:43 3.890
487394UNICA487437DI RENZO ARDUINODARE MOTUS 00:31:43 3.890
488395UNICA488436GIORDA ATTILA EUGENIODARE MOTUS 00:31:43 3.890
489396UNICA489537STRIDI MIRKOVELOCIRAPTORS 00:32:03 3.908
490397UNICA490538FARACI FRANCESCOVELOCIRAPTORS 00:32:03 3.908
49194UNICA491541GUGOLE SILVIAVELOCIRAPTORS 00:32:03 3.908
49295UNICA492374VALVASSORI VITTORIACROSS TRAINING WARRIORS 00:32:05 3.910
493398UNICA49336MORETTI PAOLOAMICI MIEI 00:32:08 3.913
494399UNICA494398MAZZOLINI FRANCOJOKER 00:32:09 3.914
49596UNICA49516GORI FRANCESCAAMICI MIEI 00:32:09 3.914
49697UNICA496493DONA' FRANCESCADOWN TOWN 00:32:15 3.920
49798UNICA497477BRUZZESE LAURADOWN TOWN 00:32:16 3.921
Righe per pagina::     TUTTE    |   30   |   50   |   100   Pagina:   | 1 | | 2 | | 3 | | 4 | | 5 | | 6 | | 7 | | 8 | | 9 | | 10 |